L.F. Wade International International Airport


Codes: TXKF/BDA
Name: L.F. Wade International International Airport
City: Hamilton
Country: Bermuda
Elevation: 12 ft.
Website:
Wikipedia:

Photos at L.F. Wade International International Airport


   Photos courtesy of SpottingLog. You can add your own sightings and photos by signing up for a free trial today.



No photos found.

Weather at L.F. Wade International International Airport


Time (UTC)DescriptionTempratureWindCloud coverageVisibilityPressureHumidity
16-Jun-2024 03:00Moderate Rain24°C22 mph, SW100%7998m1017hPa92%
16-Jun-2024 06:00Light Rain24°C20 mph, SW100%10000m1017hPa85%
16-Jun-2024 09:00Light Rain25°C18 mph, SW100%10000m1017hPa81%
16-Jun-2024 12:00Moderate Rain24°C13 mph, W100%6185m1018hPa83%
16-Jun-2024 15:00Light Rain24°C9 mph, W100%10000m1018hPa80%
16-Jun-2024 18:00Light Rain25°C7 mph, N100%10000m1018hPa79%
16-Jun-2024 21:00Light Rain25°C16 mph, NE100%10000m1017hPa76%
17-Jun-2024 00:00Overcast Clouds25°C16 mph, NE100%10000m1018hPa75%
17-Jun-2024 03:00Overcast Clouds24°C16 mph, NE98%10000m1019hPa74%
17-Jun-2024 06:00Overcast Clouds24°C16 mph, NE86%10000m1018hPa75%
17-Jun-2024 09:00Light Rain24°C18 mph, NE10%10000m1018hPa77%
17-Jun-2024 12:00Few Clouds24°C20 mph, NE14%10000m1020hPa72%
17-Jun-2024 15:00Overcast Clouds24°C18 mph, NE97%10000m1020hPa68%
17-Jun-2024 18:00Broken Clouds24°C20 mph, NE64%10000m1020hPa67%
17-Jun-2024 21:00Light Rain24°C22 mph, NE22%10000m1020hPa72%
18-Jun-2024 00:00Scattered Clouds24°C20 mph, NE43%10000m1020hPa69%
18-Jun-2024 03:00Broken Clouds24°C20 mph, NE68%10000m1021hPa63%
18-Jun-2024 06:00Light Rain24°C22 mph, NE53%10000m1020hPa70%
18-Jun-2024 09:00Scattered Clouds24°C22 mph, NE27%10000m1021hPa64%
18-Jun-2024 12:00Broken Clouds24°C25 mph, NE54%10000m1022hPa63%
18-Jun-2024 15:00Scattered Clouds24°C25 mph, E49%10000m1023hPa66%
18-Jun-2024 18:00Broken Clouds24°C25 mph, E71%10000m1022hPa65%
18-Jun-2024 21:00Overcast Clouds24°C25 mph, E100%10000m1021hPa64%
19-Jun-2024 00:00Overcast Clouds25°C25 mph, E100%10000m1022hPa64%
19-Jun-2024 03:00Overcast Clouds24°C25 mph, E100%10000m1023hPa66%
19-Jun-2024 06:00Overcast Clouds24°C22 mph, E100%10000m1022hPa69%
19-Jun-2024 09:00Overcast Clouds24°C22 mph, E100%10000m1023hPa63%
19-Jun-2024 12:00Overcast Clouds25°C22 mph, E100%10000m1024hPa65%
19-Jun-2024 15:00Overcast Clouds25°C22 mph, E100%10000m1025hPa64%
19-Jun-2024 18:00Overcast Clouds25°C22 mph, E100%10000m1024hPa67%
19-Jun-2024 21:00Overcast Clouds25°C20 mph, E98%10000m1024hPa66%
20-Jun-2024 00:00Overcast Clouds24°C20 mph, E96%10000m1024hPa68%
20-Jun-2024 03:00Light Rain25°C20 mph, E100%10000m1024hPa65%
20-Jun-2024 06:00Light Rain24°C18 mph, E100%10000m1024hPa71%
20-Jun-2024 09:00Overcast Clouds25°C18 mph, E100%10000m1024hPa69%
20-Jun-2024 12:00Light Rain25°C20 mph, E100%10000m1025hPa77%
20-Jun-2024 15:00Light Rain25°C18 mph, E89%10000m1025hPa78%
20-Jun-2024 18:00Light Rain25°C20 mph, E89%10000m1025hPa76%
20-Jun-2024 21:00Light Rain25°C20 mph, E100%10000m1024hPa74%
21-Jun-2024 00:00Overcast Clouds25°C18 mph, E100%10000m1025hPa71%